FW3743 Weather Reports


time (UTC)temp
C
wind
direction
speed
KPH
gust
KPH
rain 1hr
cm
rain 24hr
cm
rain mn
cm
humidity
%
barometer
mb
20260504050433 8 0.0 0.0 0.00 0.03 0.00 97 1009.5
20260504045433 8 0.0 0.0 0.00 0.03 0.00 97 1009.9
20260504044434 8 0.0 0.0 0.00 0.03 0.00 96 1009.6
20260504043433 8 0.0 0.0 0.00 0.03 0.00 96 1010.1
20260504042434 8 0.0 0.0 0.00 0.03 0.00 95 1009.8
20260504040434 8 0.0 0.0 0.00 0.03 0.00 94 1010.1
20260504035433 8 0.0 0.0 0.00 0.03 0.03 94 1010.0
20260504034513 8 0.0 0.0 0.00 0.03 0.03 94 1010.1
20260504033453 8 0.0 0.0 0.00 0.03 0.03 95 1010.0
20260504032433 8 0.0 0.0 0.00 0.03 0.03 95 1010.7
20260504031433 8 0.0 0.0 0.00 0.03 0.03 95 1010.6
20260504030433 8 0.0 0.0 0.00 0.03 0.03 93 1010.3
20260504025453 8 0.0 0.0 0.00 0.03 0.03 92 1010.2
20260504024433 9 0.0 0.0 0.03 0.03 0.03 91 1010.5
20260504023433 9 0.0 0.0 0.03 0.03 0.03 90 1010.8
20260504022433 9 0.0 0.0 0.03 0.03 0.03 88 1011.3
20260504021433 10 0.0 0.0 0.03 0.03 0.03 86 1011.2
20260504020433 10 0.0 0.0 0.03 0.03 0.03 84 1011.1
20260504015433 10 0.0 0.0 0.03 0.03 0.03 82 1011.3
20260504014433 10 32 0.0 11.3 0.00 0.00 0.00 80 1011.5
20260504013433 11 333 3.2 17.7 0.00 0.00 0.00 75 1011.4
20260504012453 11 32 0.0 1.6 0.00 0.00 0.00 73 1011.2
20260504011433 11 0.0 0.0 0.00 0.00 0.00 72 1011.0
20260504010433 11 329 3.2 12.9 0.00 0.00 0.00 69 1010.9
20260504005433 11 0.0 0.0 0.00 0.00 0.00 70 1011.1
20260504004433 11 341 0.0 8.0 0.00 0.00 0.00 67 1010.5
20260504003433 12 307 4.8 16.1 0.00 0.00 0.00 59 1010.3
20260504002433 12 0.0 0.0 0.00 0.00 0.00 56 1010.3
20260504001453 12 291 0.0 8.0 0.00 0.00 0.00 54 1010.1
20260504000433 12 0.0 0.0 0.00 0.00 0.00 58 1009.6
20260503235433 12 0.0 0.0 0.00 0.00 0.00 56 1009.8
20260503234433 12 0.0 0.0 0.00 0.00 0.00 54 1009.8
20260503233433 12 0.0 0.0 0.00 0.00 0.00 56 1010.1
20260503232433 12 267 0.0 12.9 0.00 0.00 0.00 54 1010.2
20260503231453 12 274 4.8 12.9 0.00 0.00 0.00 52 1010.5
20260503230433 12 328 0.0 1.6 0.00 0.00 0.00 50 1010.3
20260503225433 12 258 0.0 6.4 0.00 0.00 0.00 49 1010.5
20260503224513 13 0.0 0.0 0.00 0.00 0.00 49 1009.9
20260503223433 13 0.0 0.0 0.00 0.00 0.00 49 1010.0
20260503222433 13 0.0 0.0 0.00 0.00 0.00 48 1009.6
20260503221433 13 5 0.0 3.2 0.00 0.00 0.00 49 1010.1
20260503220433 13 0.0 0.0 0.00 0.00 0.00 49 1010.1
20260503215433 13 38 0.0 3.2 0.00 0.00 0.00 49 1010.2
20260503214433 13 264 0.0 11.3 0.00 0.00 0.00 49 1010.0
20260503213433 13 300 0.0 6.4 0.00 0.00 0.00 50 1010.3
20260503212433 12 0.0 0.0 0.00 0.00 0.00 50 1010.0
20260503211433 12 31 0.0 8.0 0.00 0.00 0.00 51 1010.3
20260503210433 12 0.0 0.0 0.00 0.00 0.00 50 1010.1
20260503205513 13 0.0 0.0 0.00 0.00 0.00 49 1010.3
20260503204433 13 136 0.0 6.4 0.00 0.00 0.00 48 1010.4
20260503203433 13 309 3.2 17.7 0.00 0.00 0.00 47 1010.6
20260503202433 13 330 0.0 11.3 0.00 0.00 0.00 46 1010.4
20260503201433 13 292 0.0 6.4 0.00 0.00 0.00 45 1010.8
20260503200433 12 269 1.6 11.3 0.00 0.00 0.00 45 1010.8
20260503195433 12 319 1.6 16.1 0.00 0.00 0.00 44 1011.1
20260503194433 12 324 0.0 8.0 0.00 0.00 0.00 47 1010.8
20260503193513 12 333 0.0 8.0 0.00 0.00 0.00 46 1011.2
20260503192453 12 324 0.0 12.9 0.00 0.00 0.00 47 1011.2
20260503191433 13 265 3.2 17.7 0.00 0.00 0.00 45 1011.2
20260503190433 12 178 0.0 11.3 0.00 0.00 0.00 46 1011.1
20260503185433 13 355 0.0 3.2 0.00 0.00 0.00 44 1011.4
20260503184441 13 282 1.6 16.1 0.00 0.00 0.00 42 1011.4
20260503183453 13 0.0 0.0 0.00 0.00 0.00 45 1011.6
20260503182433 13 42 0.0 12.9 0.00 0.00 0.00 46 1011.6
20260503181433 12 0.0 0.0 0.00 0.00 0.00 44 1011.9
20260503180433 12 294 0.0 3.2 0.00 0.00 0.00 44 1012.1
20260503175433 12 312 0.0 6.4 0.00 0.00 0.00 44 1012.1
20260503174433 12 333 0.0 3.2 0.00 0.00 0.00 43 1012.2
20260503173433 12 0.0 0.0 0.00 0.00 0.00 43 1012.3
20260503172433 11 337 0.0 6.4 0.00 0.00 0.00 42 1012.5
20260503171433 12 332 0.0 6.4 0.00 0.00 0.00 43 1012.4
20260503170433 11 331 0.0 1.6 0.00 0.00 0.00 42 1012.7
20260503150433 10 335 0.0 6.4 0.00 0.00 0.00 46 1014.1
20260503130434 7 0.0 0.0 0.00 0.00 0.00 72 1014.6
20260503110433 3 0.0 0.0 0.00 0.00 0.00 89 1014.1
20260503090433 3 0.0 0.0 0.00 0.00 0.00 82 1014.0
20260503081433 4 0.0 0.0 0.00 0.00 0.00 88 1014.1
20260503080433 4 0.0 0.0 0.00 0.00 0.00 89 1013.9
20260503072433 4 0.0 0.0 0.00 0.00 0.00 89 1013.9